Погода в Кунгуре

Россия / Пермский край     57°25′43″N   56°56′39″E
темп.,
°C
ветер,
м/с
пор.,
м/с
влажн.,
%
обл.,
%
осадки,
мм/ч
давл.,
гПа
погр.,
м
16 июня, ср
ср1623:00+18юз338696 0.0 101450
02:00+17ююз3391100 0.1 101449
05:00+17ю228957 0.1 101427
08:00+20ююв238457 0.0 1014158
11:00+25ююз346420 0.0 1013711
14:00+28ююз465134 0.0 10111222
17:00+29ююв26465 0.0 10091571
20:00+24ююз410715 0.0 1007265
17 июня, чт
чт1723:00+19ю36914 1.2 100696
02:00+17ююз4995100 3.9 1006180
05:00+17юз51198100 6.4 1005324
08:00+18ссз5689100 0.6 1006516
11:00+17ссз7888100 0.9 1008578
14:00+16с487844 0.1 1009831
17:00+21ссз795314 0.1 10082260
20:00+17ссз611628 0.0 1010625
18 июня, пт
пт1823:00+12ссз512764 0.0 1013373
02:00+10ссз49785 0.0 1014208
05:00+9ссз513770 0.0 1017372
08:00+12с610600 0.0 1019614
11:00+16с56512 0.0 10201444
14:00+18с683623 0.0 10202394
17:00+18ссз68415 0.0 10202421
20:00+17сз225982 0.0 102042
19 июня, сб
сб1923:00+12сз3360100 0.0 102039
02:00+13сз2466100 0.0 1021113
05:00+13зюз3566100 0.0 1021119
08:00+15з4117182 0.0 1020494
11:00+20зсз6856100 0.0 10191018
14:00+21сз476298 0.0 1017777
17:00+22сз4961100 0.3 1016394
20:00+21з2373100 0.0 101675
20 июня, вс
вс2023:00+19з247848 0.1 101666
02:00+16зсз36898 0.0 101696
05:00+16зсз398841 0.0 1016163
08:00+21сз51074100 0.0 1017407
11:00+25ссз711594 0.0 10171236
14:00+27ссз7115363 0.0 10172065
17:00+27с595730 0.0 10171962
20:00+24с36690 0.0 1018160